TimeMST,TemperatureF,Dew PointF,Humidity,Sea Level PressureIn,VisibilityMPH,Wind Direction,Wind SpeedMPH,Gust SpeedMPH,PrecipitationIn,Events,Conditions,WindDirDegrees,DateUTC
12:53 AM,59.0,36.0,42,29.97,10.0,Calm,Calm,-,N/A,,Clear,0,2013-11-09 07:53:00
1:53 AM,57.9,37.0,46,29.96,10.0,Calm,Calm,-,N/A,,Clear,0,2013-11-09 08:53:00
2:53 AM,55.9,37.0,49,29.96,10.0,Calm,Calm,-,N/A,,Clear,0,2013-11-09 09:53:00
3:53 AM,55.0,36.0,49,29.97,10.0,Calm,Calm,-,N/A,,Clear,0,2013-11-09 10:53:00
4:53 AM,54.0,37.0,53,29.98,10.0,Calm,Calm,-,N/A,,Clear,0,2013-11-09 11:53:00
5:53 AM,53.1,37.0,55,30.00,10.0,Calm,Calm,-,N/A,,Clear,0,2013-11-09 12:53:00
6:53 AM,53.1,37.0,55,30.03,10.0,Calm,Calm,-,N/A,,Clear,0,2013-11-09 13:53:00
7:53 AM,59.0,37.0,44,30.04,10.0,Calm,Calm,-,N/A,,Clear,0,2013-11-09 14:53:00
8:53 AM,64.0,37.0,37,30.07,10.0,Calm,Calm,-,N/A,,Clear,0,2013-11-09 15:53:00
9:53 AM,68.0,35.1,30,30.07,10.0,Calm,Calm,-,N/A,,Clear,0,2013-11-09 16:53:00
10:53 AM,72.0,36.0,27,30.06,10.0,Calm,Calm,-,N/A,,Clear,0,2013-11-09 17:53:00
11:53 AM,75.9,34.0,22,30.04,10.0,Calm,Calm,-,N/A,,Clear,0,2013-11-09 18:53:00
12:53 PM,79.0,33.1,19,30.01,10.0,SSE,3.5,-,N/A,,Clear,160,2013-11-09 19:53:00
1:53 PM,81.0,32.0,17,29.99,10.0,Calm,Calm,-,N/A,,Clear,0,2013-11-09 20:53:00
2:53 PM,82.0,30.9,16,29.98,10.0,Variable,3.5,-,N/A,,Clear,0,2013-11-09 21:53:00
3:53 PM,82.0,30.9,16,29.97,10.0,South,4.6,-,N/A,,Clear,190,2013-11-09 22:53:00
4:53 PM,81.0,32.0,17,29.97,10.0,Calm,Calm,-,N/A,,Clear,0,2013-11-09 23:53:00
5:53 PM,77.0,35.1,22,29.98,10.0,Calm,Calm,-,N/A,,Clear,0,2013-11-10 00:53:00
6:53 PM,75.0,34.0,22,29.99,10.0,Calm,Calm,-,N/A,,Clear,0,2013-11-10 01:53:00
7:53 PM,71.1,34.0,26,30.00,10.0,North,5.8,-,N/A,,Clear,10,2013-11-10 02:53:00
8:53 PM,70.0,34.0,27,30.01,10.0,North,4.6,-,N/A,,Clear,10,2013-11-10 03:53:00
9:53 PM,64.0,35.1,34,30.02,10.0,Calm,Calm,-,N/A,,Clear,0,2013-11-10 04:53:00
10:53 PM,63.0,35.1,35,30.03,10.0,Calm,Calm,-,N/A,,Clear,0,2013-11-10 05:53:00
11:53 PM,62.1,36.0,38,30.02,10.0,Calm,Calm,-,N/A,,Clear,0,2013-11-10 06:53:00